[[{"header":{"parameterUnit":"m.s-1","parameterCategory":1,"la1":30.2991,"la2":30.254,"lo1":-89.0895,"lo2":-89.0444,"dx":0.0017,"dy":0.0017,"nx":28,"ny":28,"refTime":"2023-01-12T15:00:00:Z","depth":0,"parameterNumber":2,"parameterNumberName":"U-component_of_WINDS"},"data":[0,0,0,0,0,0,0,0,0,0,0,0,0,0,0,0,0,0,0,0,0,0,0,0,0,0,0,0,0,0,0,0,0,0,0,0,0,0,0,0,0,0,0,0,0,0,0,0,0,0,0,0,0,0,0,0,0,0,2.4447,2.4448,0,2.4484,2.4484,2.4485,2.446,2.4459,2.4457,2.4456,2.4493,2.4495,2.4496,0,0,0,0,0,0,0,0,0,0,0,0,0,2.4356,2.4357,2.4447,2.4448,2.4448,2.4484,2.4484,2.4485,2.446,2.4459,2.4457,2.4456,2.4492,2.4494,2.4497,0,0,0,0,0,0,0,0,0,0,0,0,0,2.4394,2.4358,2.4447,2.444,2.444,2.4484,2.4484,2.4485,2.446,2.4458,2.4457,2.4455,2.4491,2.4494,2.4497,2.4549,0,0,2.4506,2.4508,0,0,0,0,0,0,0,0,2.4392,2.4398,2.4441,2.4441,2.444,2.4465,2.4465,2.4506,2.4461,2.4452,2.4456,2.4454,2.4485,2.4488,2.4499,2.4551,2.4553,2.4506,2.4508,2.451,2.451,0,0,0,0,0,0,0,2.4389,2.4396,2.4462,2.4441,2.4441,2.4435,2.4439,2.4473,2.4478,2.4453,2.4451,2.4456,2.4484,2.4496,2.4499,2.4553,2.4506,2.4509,2.4511,2.4512,2.4652,2.4654,0,0,0,0,0,0,2.4387,2.4394,2.446,2.4463,2.4412,2.4438,2.4442,2.4459,2.4477,2.4478,2.4457,2.4455,2.4492,2.4496,2.4501,2.4564,2.451,2.4512,2.4514,2.465,2.4652,2.4655,0,0,0,0,0,0,2.4386,2.4394,2.4459,2.4428,2.4436,2.4441,2.4461,2.4461,2.4472,2.4481,2.4481,2.4468,2.449,2.4496,2.4538,2.4565,2.4514,2.4517,2.4648,2.4651,2.4654,2.4691,0,0,0,0,0,0,2.4383,2.4393,2.4413,2.4428,2.4437,2.4496,2.4462,2.4463,2.4478,2.4474,2.4491,2.4492,2.449,2.4534,2.4541,2.4568,2.4519,2.4646,2.4649,2.4653,2.4687,2.4694,2.4701,0,0,0,0,0,2.438,2.4421,2.4414,2.4422,2.4462,2.4497,2.4502,2.4499,2.448,2.45,2.4506,2.4491,2.4561,2.4538,2.4546,2.4575,2.4644,2.4648,2.4652,2.4684,2.4693,2.4701,0,0,0,0,0,0,2.4408,2.4423,2.4415,2.4463,2.4479,2.4493,2.4518,2.4509,2.453,2.4526,2.4521,2.4525,2.4569,2.4576,2.455,2.4627,2.4599,2.4605,2.4621,2.4629,2.4636,2.4633,2.4521,0,0,0,0,0,2.442,2.4447,2.4459,2.45,2.4508,2.4512,2.4527,2.4523,2.454,2.4546,2.4555,2.4571,2.4597,2.4613,2.4637,2.4688,2.4692,2.4712,2.4719,2.4725,2.473,2.4758,2.4768,2.4669,2.4669,2.4669,0,0,2.4444,2.4456,2.4473,2.4506,2.4518,2.4546,2.4518,2.4549,2.457,2.4551,2.4591,2.4598,2.4616,2.4663,2.4684,2.467,2.4758,2.473,2.4734,2.4737,2.4764,2.4773,2.4782,2.4672,2.4671,2.4671,0,0,2.4503,2.4515,2.455,2.4564,2.4583,2.4585,2.4594,2.461,2.4614,2.4655,2.4641,2.4667,2.471,2.4724,2.4737,2.4804,2.4792,2.4811,2.4847,2.4875,2.4883,2.489,2.4914,2.4923,2.4817,2.4817,2.4817,0,2.453,2.4573,2.457,2.4603,2.4618,2.4603,2.464,2.4652,2.4678,2.4689,2.4674,2.473,2.474,2.4791,2.4807,2.4818,2.4828,2.4809,2.4882,2.4889,2.4895,2.4918,2.4928,2.4819,2.4819,2.4819,2.4818,0,2.4606,2.4636,2.4663,2.469,2.4708,2.4742,2.4745,2.4763,2.4759,2.4763,2.4805,2.4818,2.4845,2.4857,2.4852,2.4907,2.4898,2.4883,2.4855,2.4907,2.4929,2.4938,2.4822,2.4822,2.4821,2.482,0,0,2.4682,2.4708,2.4718,2.473,2.4751,2.4774,2.4809,2.4836,2.4853,2.4871,2.49,2.4939,2.4925,2.494,2.4937,2.4961,2.5014,2.4943,2.4943,2.4956,2.5077,2.5088,2.5099,2.5007,2.5009,2.501,2.5076,0,2.4743,2.4803,2.4802,2.4858,2.4886,2.4873,2.4903,2.492,2.4925,2.495,2.4956,2.4984,2.4963,2.4972,2.4996,2.5003,2.5039,2.4998,2.5034,2.5035,2.503,2.511,2.5122,2.5183,2.5084,2.5085,2.5086,0,2.482,2.4843,2.4902,2.492,2.4932,2.4959,2.4985,2.5009,2.5027,2.503,2.5047,2.5041,2.5076,2.5048,2.5097,2.507,2.5085,2.5091,2.5093,2.5096,2.5064,2.5115,2.5202,2.5211,2.51,2.5099,2.5098,0,2.487,2.4915,2.4957,2.4968,2.499,2.501,2.502,2.5037,2.5054,2.5077,2.5088,2.5114,2.5128,2.5149,2.515,2.5129,2.52,2.5172,2.5203,2.5203,2.5218,2.5217,2.5308,2.5228,2.5228,2.5228,2.5227,0,2.4937,2.4974,2.498,2.5005,2.5046,2.5045,2.5086,2.5094,2.511,2.5137,2.5128,2.5154,2.5154,2.518,2.5182,2.5223,2.5229,2.5232,2.5232,2.5233,2.5233,2.5242,2.5238,2.523,2.523,2.5229,2.5229,0,2.4999,2.5005,2.5049,2.5067,2.5073,2.5102,2.5118,2.5143,2.5148,2.5183,2.5191,2.5199,2.523,2.5234,2.5269,2.527,2.532,2.5315,2.5314,2.5313,2.5344,2.5341,2.5445,2.5459,2.5369,2.537,2.5371,0,2.5041,2.5069,2.5092,2.5109,2.5121,2.515,2.5168,2.5169,2.5187,2.5212,2.5234,2.5264,2.5288,2.5338,2.5347,2.5375,2.5371,2.5405,2.5375,2.5375,2.5372,2.537,2.5373,2.5411,2.5412,2.5413,2.5413,0,2.5116,2.5118,2.5144,2.5172,2.5193,2.5215,2.5235,2.525,2.5254,2.5276,2.5308,2.5326,2.5364,2.5394,2.5422,2.5432,2.5424,2.5423,2.5432,2.5433,2.5431,2.5433,2.533,2.542,2.542,2.5419,2.5419,2.5419,2.5169,2.5194,2.5214,2.5244,2.526,2.5279,2.5304,2.5313,2.534,2.5371,2.537,2.5405,2.5425,2.5461,2.5474,2.5502,2.549,2.5503,2.5506,2.5509,2.5513,2.5427,2.5507,2.5507,2.5507,2.5506,2.5506,0,2.5244,2.5256,2.5284,2.5313,2.5337,2.5328,2.5351,2.5371,2.5402,2.5422,2.5446,2.5484,2.5514,2.5526,2.5556,2.5576,2.5572,2.5583,2.5581,2.5584,2.5521,2.5511,2.5585,2.5585,2.5585,2.5585,2.5585,2.5585,2.5285,2.5327,2.5332,2.5382,2.5394,2.5429,2.5443,2.5461,2.5477,2.5519,2.5544,2.5553,2.557,2.5601,2.5628,2.5631,2.5642,2.5655,2.5656,2.5597,2.5589,2.5581,2.5571,2.5657,2.5657,2.5717,2.5718,2.5718]},{"header":{"parameterUnit":"m.s-1","parameterCategory":1,"la1":30.2991,"la2":30.254,"lo1":-89.0895,"lo2":-89.0444,"dx":0.0017,"dy":0.0017,"nx":28,"ny":28,"refTime":"2023-01-12T15:00:00:Z","depth":0,"parameterNumber":3,"parameterNumberName":"V-component_of_WINDS"},"data":[0,0,0,0,0,0,0,0,0,0,0,0,0,0,0,0,0,0,0,0,0,0,0,0,0,0,0,0,0,0,0,0,0,0,0,0,0,0,0,0,0,0,0,0,0,0,0,0,0,0,0,0,0,0,0,0,0,0,-7.7438,-7.744,0,-7.7603,-7.7604,-7.7606,-7.7529,-7.7525,-7.7521,-7.7517,-7.768,-7.7688,-7.7696,0,0,0,0,0,0,0,0,0,0,0,0,0,-7.7051,-7.7059,-7.7438,-7.744,-7.7442,-7.7602,-7.7605,-7.7607,-7.753,-7.7524,-7.7519,-7.7515,-7.7677,-7.7687,-7.7697,0,0,0,0,0,0,0,0,0,0,0,0,0,-7.7218,-7.7061,-7.7437,-7.7423,-7.7423,-7.7602,-7.7605,-7.7607,-7.7531,-7.7524,-7.7518,-7.7512,-7.7674,-7.7686,-7.7698,-7.7899,0,0,-7.7736,-7.7741,0,0,0,0,0,0,0,0,-7.7208,-7.7232,-7.7423,-7.7424,-7.7425,-7.7539,-7.7528,-7.7705,-7.7532,-7.749,-7.7516,-7.7509,-7.7638,-7.7652,-7.7697,-7.7907,-7.7914,-7.7737,-7.7744,-7.775,-7.7753,0,0,0,0,0,0,0,-7.7197,-7.7224,-7.7503,-7.7426,-7.7427,-7.7406,-7.7423,-7.7561,-7.7596,-7.7493,-7.7488,-7.7509,-7.7637,-7.7685,-7.77,-7.7916,-7.7736,-7.7747,-7.7755,-7.776,-7.8299,-7.8305,0,0,0,0,0,0,-7.7186,-7.7215,-7.7497,-7.7508,-7.7299,-7.7418,-7.7437,-7.7508,-7.7595,-7.7602,-7.7514,-7.7504,-7.7667,-7.7686,-7.7706,-7.7947,-7.7749,-7.7761,-7.7768,-7.8292,-7.83,-7.8308,0,0,0,0,0,0,-7.7178,-7.7212,-7.7491,-7.736,-7.7394,-7.7432,-7.7512,-7.7515,-7.7563,-7.7611,-7.7616,-7.7557,-7.7663,-7.7688,-7.7852,-7.7951,-7.7767,-7.7778,-7.8284,-7.8294,-7.8304,-7.8431,0,0,0,0,0,0,-7.7168,-7.721,-7.7288,-7.7363,-7.7401,-7.7636,-7.7519,-7.7523,-7.7586,-7.7575,-7.7653,-7.7659,-7.766,-7.7834,-7.7864,-7.7965,-7.7787,-7.8275,-7.8288,-7.83,-7.8418,-7.8444,-7.8467,0,0,0,0,0,-7.7154,-7.7316,-7.7292,-7.7327,-7.75,-7.7642,-7.7664,-7.7663,-7.7594,-7.7672,-7.7702,-7.7657,-7.7936,-7.7851,-7.7885,-7.7991,-7.8268,-7.8284,-7.83,-7.8407,-7.8439,-7.8466,0,0,0,0,0,0,-7.725,-7.7325,-7.73,-7.7491,-7.7561,-7.7629,-7.7727,-7.7697,-7.7787,-7.7773,-7.7766,-7.7784,-7.7954,-7.7988,-7.7893,-7.819,-7.8091,-7.8114,-7.8161,-7.8192,-7.8216,-7.8205,-7.7798,0,0,0,0,0,-7.7294,-7.7405,-7.7464,-7.7627,-7.7663,-7.769,-7.7752,-7.7745,-7.7816,-7.7845,-7.7887,-7.7957,-7.806,-7.8128,-7.8225,-7.8422,-7.8438,-7.8512,-7.8536,-7.8556,-7.8576,-7.8683,-7.8716,-7.8359,-7.8358,-7.8358,0,0,-7.7385,-7.7439,-7.751,-7.7647,-7.7701,-7.7815,-7.7715,-7.7839,-7.7923,-7.7863,-7.8021,-7.8055,-7.8131,-7.8313,-7.8395,-7.8347,-7.8678,-7.8576,-7.8591,-7.8601,-7.8702,-7.8736,-7.8766,-7.8369,-7.8367,-7.8366,0,0,-7.7608,-7.7661,-7.7803,-7.7859,-7.7942,-7.7959,-7.7993,-7.8066,-7.8086,-7.8245,-7.8203,-7.8301,-7.8479,-7.8536,-7.8588,-7.8834,-7.8796,-7.8866,-7.8993,-7.9098,-7.9126,-7.9151,-7.9239,-7.927,-7.8885,-7.8886,-7.8886,0,-7.771,-7.7882,-7.7879,-7.8008,-7.807,-7.8022,-7.8165,-7.8219,-7.8329,-7.8372,-7.8317,-7.8539,-7.8588,-7.8782,-7.8842,-7.8886,-7.8924,-7.8857,-7.9122,-7.9147,-7.9171,-7.9254,-7.9287,-7.8894,-7.8893,-7.8892,-7.8891,0,-7.8003,-7.8123,-7.8227,-7.8337,-7.841,-7.8545,-7.8561,-7.8635,-7.8622,-7.8644,-7.8806,-7.8863,-7.8971,-7.9016,-7.9004,-7.9209,-7.9177,-7.9123,-7.9023,-7.9213,-7.9291,-7.9323,-7.8905,-7.8902,-7.89,-7.8898,0,0,-7.8292,-7.84,-7.8438,-7.8488,-7.8576,-7.8667,-7.8799,-7.8907,-7.8971,-7.9048,-7.9158,-7.931,-7.9261,-7.932,-7.9313,-7.9405,-7.9597,-7.9339,-7.9341,-7.9385,-7.9826,-7.9867,-7.9904,-7.9572,-7.9578,-7.9583,-7.982,0,-7.8523,-7.8757,-7.8759,-7.8974,-7.9084,-7.9041,-7.9156,-7.9221,-7.9245,-7.9341,-7.9366,-7.9474,-7.94,-7.9436,-7.9525,-7.9555,-7.9685,-7.9537,-7.9673,-7.9678,-7.9656,-7.9945,-7.9989,-8.021,-7.985,-7.9856,-7.9859,0,-7.8824,-7.8913,-7.914,-7.9212,-7.9258,-7.9362,-7.9461,-7.9554,-7.9627,-7.9637,-7.9705,-7.9684,-7.9817,-7.9714,-7.9897,-7.9797,-7.9852,-7.9875,-7.9883,-7.9896,-7.978,-7.9966,-8.0281,-8.0314,-7.9908,-7.9904,-7.99,0,-7.9012,-7.9189,-7.9347,-7.9391,-7.948,-7.9554,-7.9593,-7.9661,-7.9726,-7.9811,-7.9853,-7.9953,-8.0008,-8.0084,-8.0091,-8.0015,-8.0275,-8.0172,-8.0287,-8.0287,-8.0344,-8.034,-8.0672,-8.0379,-8.0379,-8.0378,-8.0377,0,-7.927,-7.941,-7.9434,-7.9531,-7.9687,-7.9687,-7.984,-7.9873,-7.9934,-8.0036,-8.0003,-8.0099,-8.0102,-8.02,-8.0205,-8.0356,-8.0381,-8.0392,-8.0392,-8.0396,-8.0394,-8.0432,-8.0417,-8.0387,-8.0385,-8.0383,-8.0382,0,-7.9507,-7.9529,-7.9699,-7.9769,-7.979,-7.9902,-7.9961,-8.0054,-8.0074,-8.0204,-8.0234,-8.0267,-8.0381,-8.0395,-8.0526,-8.053,-8.0712,-8.0695,-8.0688,-8.0686,-8.08,-8.0789,-8.1168,-8.1217,-8.0892,-8.0895,-8.0897,0,-7.9671,-7.9778,-7.9861,-7.9928,-7.9973,-8.0081,-8.0148,-8.0151,-8.0221,-8.0313,-8.0394,-8.0505,-8.0594,-8.0777,-8.0811,-8.0912,-8.0897,-8.1023,-8.0912,-8.0912,-8.09,-8.0893,-8.0904,-8.1044,-8.1048,-8.1051,-8.1053,0,-7.9959,-7.9964,-8.0063,-8.0166,-8.0246,-8.0327,-8.0402,-8.0458,-8.0471,-8.0551,-8.0669,-8.0738,-8.0873,-8.0983,-8.1083,-8.1122,-8.109,-8.1088,-8.112,-8.1125,-8.1117,-8.1123,-8.0747,-8.1079,-8.1077,-8.1075,-8.1073,-8.1072,-8.0165,-8.0258,-8.0331,-8.0442,-8.0499,-8.0571,-8.0662,-8.0695,-8.0793,-8.0905,-8.09,-8.1029,-8.1099,-8.1229,-8.1276,-8.1375,-8.1333,-8.1379,-8.1391,-8.1403,-8.1415,-8.1101,-8.1393,-8.1392,-8.1391,-8.1391,-8.139,0,-8.0451,-8.0496,-8.0598,-8.0706,-8.0793,-8.0757,-8.0839,-8.0913,-8.1028,-8.1096,-8.1185,-8.1319,-8.1426,-8.1469,-8.1573,-8.1645,-8.1633,-8.1672,-8.1667,-8.1676,-8.1446,-8.1408,-8.168,-8.168,-8.168,-8.168,-8.168,-8.168,-8.0611,-8.0767,-8.0782,-8.0966,-8.1009,-8.1137,-8.1187,-8.1252,-8.1307,-8.1459,-8.1549,-8.1577,-8.1635,-8.1743,-8.1839,-8.1848,-8.1888,-8.1934,-8.1938,-8.1722,-8.1692,-8.1664,-8.1629,-8.1943,-8.1943,-8.216,-8.2162,-8.2163]}]]